When you browse on this site, cookies collect data to enhance your experience and personalize the content and advertising you see.
Visit our Privacy Policy to learn more. By continuing to use the site, you agree to this use of cookies and data.
  • en Suisse
  • Liste des pays
  • À 7 jours
  • Température de l'eau
  • Carte satellitaire
  • Carte météo
  • Widgets météo
  • user-avatar
    Se connecter

    Météo par heure à Landau in der Pfalz

    Ce jour, 19 Juillet, Vendredi

    Heure Température Précipitation Vent Pression Humidité
    00:00 +19°C° 0 mm 1 m/s 745 mmHg 85%
    01:00 +19°C° 0 mm 1 m/s 746 mmHg 87%
    02:00 +19°C° 0.2 mm 1 m/s 746 mmHg 86%
    03:00 +19°C° 0.2 mm 1 m/s 745 mmHg 86%
    04:00 +19°C° 0.2 mm 1 m/s 745 mmHg 85%
    05:00 +18°C° 0.3 mm 2 m/s 746 mmHg 86%
    06:00 +19°C° 0.3 mm 2 m/s 746 mmHg 86%
    07:00 +19°C° 0.3 mm 2 m/s 746 mmHg 87%
    08:00 +20°C° 0.3 mm 2 m/s 746 mmHg 86%
    09:00 +20°C° 0.3 mm 2 m/s 746 mmHg 85%
    10:00 +21°C° 0.3 mm 2 m/s 747 mmHg 84%
    11:00 +22°C° 1 mm 3 m/s 746 mmHg 81%
    12:00 +24°C° 1 mm 3 m/s 746 mmHg 78%
    13:00 +25°C° 1 mm 3 m/s 746 mmHg 75%
    14:00 +25°C° 0.3 mm 3 m/s 746 mmHg 70%
    15:00 +26°C° 0.3 mm 3 m/s 746 mmHg 66%
    16:00 +26°C° 0.3 mm 3 m/s 746 mmHg 62%
    17:00 +26°C° 0.1 mm 2 m/s 746 mmHg 65%
    18:00 +25°C° 0.1 mm 2 m/s 746 mmHg 68%
    19:00 +25°C° 0.1 mm 1 m/s 746 mmHg 71%
    20:00 +24°C° 0 mm 1 m/s 746 mmHg 75%
    21:00 +22°C° 0 mm 1 m/s 747 mmHg 80%
    22:00 +21°C° 0 mm 1 m/s 747 mmHg 84%
    23:00 +20°C° 0 mm 1 m/s 747 mmHg 85%

    Demain, 20 Juillet, Samedi

    Heure Température Précipitation Vent Pression Humidité
    00:00 +20°C° 0 mm 1 m/s 747 mmHg 86%
    01:00 +17°C° 0 mm 0 m/s 747 mmHg 86%
    02:00 +17°C° 0 mm 0 m/s 746 mmHg 87%
    03:00 +17°C° 0 mm 0 m/s 746 mmHg 87%
    04:00 +17°C° 0 mm 0 m/s 746 mmHg 88%
    05:00 +18°C° 0 mm 0 m/s 746 mmHg 84%
    06:00 +19°C° 0 mm 0 m/s 746 mmHg 81%
    07:00 +22°C° 0 mm 1 m/s 746 mmHg 78%
    08:00 +24°C° 0 mm 1 m/s 746 mmHg 72%
    09:00 +25°C° 0 mm 1 m/s 746 mmHg 66%
    10:00 +27°C° 0 mm 2 m/s 746 mmHg 60%
    11:00 +28°C° 0 mm 2 m/s 746 mmHg 56%
    12:00 +29°C° 0 mm 3 m/s 746 mmHg 53%
    13:00 +30°C° 0 mm 3 m/s 746 mmHg 49%
    14:00 +32°C° 0.1 mm 4 m/s 745 mmHg 47%
    15:00 +32°C° 0.1 mm 4 m/s 745 mmHg 45%
    16:00 +33°C° 0.1 mm 4 m/s 745 mmHg 43%
    17:00 +32°C° 0 mm 4 m/s 745 mmHg 50%
    18:00 +29°C° 0 mm 3 m/s 745 mmHg 57%
    19:00 +28°C° 0 mm 2 m/s 746 mmHg 63%
    20:00 +26°C° 0.2 mm 2 m/s 746 mmHg 67%
    21:00 +25°C° 0.2 mm 2 m/s 746 mmHg 72%
    22:00 +23°C° 0.2 mm 2 m/s 747 mmHg 76%
    23:00 +23°C° 0.6 mm 2 m/s 747 mmHg 80%

    Après-demain, 21 Juillet, Dimanche

    Heure Température Précipitation Vent Pression Humidité
    00:00 +21°C° 0.6 mm 2 m/s 747 mmHg 85%
    01:00 +20°C° 0.6 mm 2 m/s 748 mmHg 89%
    02:00 +20°C° 0.1 mm 2 m/s 748 mmHg 90%
    03:00 +19°C° 0.1 mm 2 m/s 748 mmHg 90%
    04:00 +19°C° 0.1 mm 2 m/s 748 mmHg 91%
    05:00 +20°C° 0 mm 2 m/s 748 mmHg 90%
    06:00 +20°C° 0 mm 2 m/s 749 mmHg 88%
    07:00 +21°C° 0 mm 3 m/s 749 mmHg 87%
    08:00 +22°C° 0.1 mm 3 m/s 750 mmHg 79%
    09:00 +25°C° 0.1 mm 3 m/s 750 mmHg 71%
    10:00 +26°C° 0.1 mm 4 m/s 750 mmHg 63%
    11:00 +27°C° 0 mm 4 m/s 751 mmHg 57%
    12:00 +28°C° 0 mm 4 m/s 751 mmHg 50%
    13:00 +29°C° 0 mm 4 m/s 751 mmHg 44%
    14:00 +29°C° 0 mm 3 m/s 751 mmHg 43%
    15:00 +29°C° 0 mm 3 m/s 751 mmHg 42%
    16:00 +30°C° 0 mm 3 m/s 751 mmHg 42%
    17:00 +29°C° 0 mm 2 m/s 751 mmHg 47%
    18:00 +28°C° 0 mm 2 m/s 751 mmHg 52%
    19:00 +27°C° 0 mm 2 m/s 751 mmHg 58%
    20:00 +25°C° 0 mm 2 m/s 751 mmHg 62%
    21:00 +23°C° 0 mm 1 m/s 752 mmHg 66%
    22:00 +21°C° 0 mm 1 m/s 752 mmHg 71%
    23:00 +21°C° 0 mm 1 m/s 752 mmHg 72%

    22 Juillet, Lundi

    Heure Température Précipitation Vent Pression Humidité
    00:00 +20°C° 0 mm 1 m/s 752 mmHg 74%
    01:00 +18°C° 0 mm 0 m/s 752 mmHg 75%
    02:00 +20°C° 0 mm 1 m/s 752 mmHg 76%
    03:00 +19°C° 0 mm 1 m/s 752 mmHg 77%
    04:00 +19°C° 0 mm 1 m/s 753 mmHg 78%
    05:00 +20°C° 0 mm 1 m/s 753 mmHg 75%
    06:00 +21°C° 0 mm 1 m/s 753 mmHg 73%
    07:00 +22°C° 0 mm 1 m/s 753 mmHg 70%
    08:00 +24°C° 0 mm 1 m/s 753 mmHg 64%
    09:00 +26°C° 0 mm 1 m/s 753 mmHg 58%
    10:00 +28°C° 0 mm 1 m/s 754 mmHg 52%
    11:00 +29°C° 0 mm 1 m/s 753 mmHg 47%
    12:00 +30°C° 0 mm 1 m/s 753 mmHg 43%
    13:00 +31°C° 0 mm 1 m/s 753 mmHg 39%
    14:00 +31°C° 0 mm 1 m/s 753 mmHg 38%
    15:00 +31°C° 0 mm 1 m/s 753 mmHg 38%
    16:00 +31°C° 0 mm 2 m/s 753 mmHg 37%
    17:00 +30°C° 0 mm 2 m/s 752 mmHg 43%
    18:00 +28°C° 0 mm 2 m/s 752 mmHg 50%
    19:00 +27°C° 0 mm 2 m/s 752 mmHg 56%
    20:00 +26°C° 0 mm 2 m/s 752 mmHg 58%
    21:00 +24°C° 0 mm 2 m/s 752 mmHg 59%
    22:00 +23°C° 0 mm 2 m/s 753 mmHg 61%
    23:00 +23°C° 0 mm 2 m/s 752 mmHg 64%

    23 Juillet, Mardi

    Heure Température Précipitation Vent Pression Humidité
    00:00 +21°C° 0 mm 2 m/s 752 mmHg 66%
    01:00 +21°C° 0 mm 2 m/s 752 mmHg 69%
    02:00 +21°C° 0 mm 2 m/s 752 mmHg 70%
    03:00 +20°C° 0 mm 2 m/s 752 mmHg 71%
    04:00 +20°C° 0 mm 2 m/s 751 mmHg 72%
    05:00 +20°C° 0 mm 2 m/s 751 mmHg 71%
    06:00 +21°C° 0 mm 2 m/s 751 mmHg 69%
    07:00 +23°C° 0 mm 2 m/s 751 mmHg 68%
    08:00 +25°C° 0 mm 3 m/s 751 mmHg 62%
    09:00 +27°C° 0 mm 3 m/s 751 mmHg 56%
    10:00 +29°C° 0 mm 3 m/s 751 mmHg 50%
    11:00 +30°C° 0 mm 3 m/s 751 mmHg 46%
    12:00 +33°C° 0 mm 3 m/s 750 mmHg 41%
    13:00 +34°C° 0 mm 4 m/s 750 mmHg 37%
    14:00 +35°C° 0 mm 3 m/s 750 mmHg 36%
    15:00 +35°C° 0 mm 3 m/s 749 mmHg 35%
    16:00 +35°C° 0 mm 3 m/s 749 mmHg 33%
    17:00 +34°C° 0 mm 3 m/s 749 mmHg 40%
    18:00 +33°C° 0 mm 3 m/s 749 mmHg 46%
    19:00 +30°C° 0 mm 3 m/s 749 mmHg 52%
    20:00 +29°C° 0 mm 2 m/s 749 mmHg 56%
    21:00 +27°C° 0 mm 2 m/s 749 mmHg 61%
    22:00 +26°C° 0 mm 2 m/s 749 mmHg 65%
    23:00 +25°C° 0 mm 2 m/s 749 mmHg 67%

    24 Juillet, Mercredi

    Heure Température Précipitation Vent Pression Humidité
    00:00 +24°C° 0 mm 2 m/s 749 mmHg 69%
    01:00 +24°C° 0 mm 2 m/s 749 mmHg 71%
    02:00 +23°C° 0 mm 1 m/s 748 mmHg 74%
    03:00 +22°C° 0 mm 1 m/s 748 mmHg 76%
    04:00 +22°C° 0 mm 1 m/s 748 mmHg 78%
    05:00 +23°C° 0 mm 1 m/s 748 mmHg 75%
    06:00 +24°C° 0 mm 1 m/s 748 mmHg 73%
    07:00 +24°C° 0 mm 1 m/s 748 mmHg 71%
    08:00 +27°C° 0 mm 1 m/s 748 mmHg 64%
    09:00 +29°C° 0 mm 1 m/s 748 mmHg 57%
    10:00 +31°C° 0 mm 1 m/s 748 mmHg 51%
    11:00 +32°C° 0 mm 1 m/s 748 mmHg 47%
    12:00 +34°C° 0 mm 1 m/s 748 mmHg 43%
    13:00 +36°C° 0 mm 1 m/s 748 mmHg 39%
    14:00 +36°C° 0 mm 1 m/s 748 mmHg 37%
    15:00 +36°C° 0 mm 1 m/s 748 mmHg 35%
    16:00 +37°C° 0 mm 2 m/s 747 mmHg 33%
    17:00 +36°C° 0 mm 2 m/s 747 mmHg 38%
    18:00 +34°C° 0 mm 2 m/s 747 mmHg 44%
    19:00 +32°C° 0 mm 2 m/s 747 mmHg 50%
    20:00 +30°C° 0 mm 2 m/s 747 mmHg 54%
    21:00 +28°C° 0 mm 1 m/s 748 mmHg 58%
    22:00 +27°C° 0 mm 1 m/s 748 mmHg 62%
    23:00 +26°C° 0 mm 1 m/s 748 mmHg 65%
    Voir plus